Flag for U.S.A. Weather past 2 weeks in Milwaukee, Wisconsin, U.S.A.

55 °F

Partly sunny.

Feels Like: 51 °F
Forecast: 47 / 57 °F
Wind: 18 mph from Northwest

Location: Milwaukee / Timmerman

Current Time: Oct 13, 2015 at 12:53:01 PM

Latest Report: Oct 13, 2015 at 11:45 AM

Visibility: 10 mi

Pressure: 29.70 "Hg

Humidity: 55%

Dew point: 39 °F

Location of MilwaukeeLocation

Historic Weather in Milwaukee — Graph


Milwaukee temperature yesterday

Maximum temperature yesterday: 72 °F (at 2:45 PM)
Minimum temperature yesterday: 50 °F (at 11:35 PM)
Average temperature yesterday: 61 °F

Past Weeks' High & Low Weather Summary

High79 °F (Sep 28, 2:45 PM)100% (Oct 8, 8:45 PM)30.46 "Hg (Oct 8, 8:45 PM)
Low41 °F (Oct 10, 3:35 AM)29% (Oct 12, 2:45 PM)29.41 "Hg (Oct 12, 2:45 PM)
Average55 °F71%30.08 "Hg
* Reported Sep 28 10:45 AM — Oct 13 10:45 AM, Milwaukee, Weather by CustomWeather, © 2015

Note: Actual official high and low records may vary slightly from our data, if they occured in-between our weather recording intervals... More about our weather records


Milwaukee weather history for previous 24 hours

Time TempWeatherWind HumidityBarometerVisibility
10:45 AM
Tue, Oct 13
52 °FOvercast.14 mph62%29.70 "Hg10 mi
9:45 AM50 °FOvercast.14 mph62%29.67 "Hg10 mi
8:45 AM48 °FOvercast.18 mph71%29.66 "Hg10 mi
8:30 AM48 °FOvercast.16 mph71%29.65 "Hg10 mi
7:45 AM48 °FOvercast.17 mph71%29.62 "Hg10 mi
7:15 AM48 °FMostly cloudy.20 mph66%29.62 "Hg10 mi
6:55 AM48 °FPartly cloudy.17 mph66%29.62 "Hg10 mi
6:45 AM48 °FPassing clouds.16 mph66%29.61 "Hg10 mi
6:15 AM48 °FClear.23 mph66%29.59 "Hg10 mi
5:55 AM48 °FPassing clouds.17 mph66%29.60 "Hg10 mi
5:35 AM48 °FOvercast.17 mph66%29.58 "Hg10 mi
5:15 AM48 °FMostly cloudy.16 mph66%29.59 "Hg10 mi
4:55 AM48 °FMostly cloudy.14 mph66%29.58 "Hg10 mi
4:35 AM48 °FMostly cloudy.17 mph66%29.57 "Hg10 mi
4:15 AM48 °FMostly cloudy.17 mph66%29.58 "Hg10 mi
3:55 AM48 °FMostly cloudy.15 mph66%29.57 "Hg10 mi
3:35 AM48 °FMostly cloudy.16 mph66%29.57 "Hg10 mi
3:15 AM50 °FMostly cloudy.13 mph62%29.56 "Hg10 mi
2:55 AM50 °FMostly cloudy.14 mph62%29.56 "Hg10 mi
2:15 AM50 °FMostly cloudy.17 mph62%29.55 "Hg10 mi
1:55 AM50 °FOvercast.15 mph62%29.56 "Hg10 mi
1:15 AM50 °FMostly cloudy.13 mph62%29.55 "Hg10 mi
12:55 AM50 °FOvercast.20 mph62%29.55 "Hg10 mi
12:35 AM50 °FMostly cloudy.15 mph62%29.54 "Hg10 mi
12:15 AM50 °FOvercast.17 mph62%29.54 "Hg10 mi
11:55 PM
Mon, Oct 12
50 °FMostly cloudy.20 mph62%29.53 "Hg10 mi
11:35 PM50 °FMostly cloudy.15 mph62%29.53 "Hg10 mi
11:15 PM52 °FOvercast.14 mph58%29.53 "Hg10 mi
10:15 PM52 °FOvercast.17 mph62%29.52 "Hg10 mi
9:55 PM52 °FMostly cloudy.9 mph58%29.52 "Hg10 mi
9:35 PM52 °FPartly cloudy.10 mph58%29.52 "Hg10 mi
9:15 PM52 °FPassing clouds.20 mph58%29.51 "Hg10 mi
8:45 PM55 °FOvercast.21 mph55%29.50 "Hg10 mi
7:45 PM57 °FOvercast.13 mph51%29.49 "Hg10 mi
5:45 PM64 °FOvercast.20 mph37%29.45 "Hg10 mi
4:45 PM66 °FPartly sunny.21 mph32%29.43 "Hg10 mi
3:45 PM70 °FSunny.25 mph29%29.41 "Hg10 mi
2:45 PM72 °FSunny.18 mph29%29.41 "Hg10 mi
1:45 PM70 °FSunny.14 mph33%29.42 "Hg10 mi
12:45 PM66 °FSunny.12 mph46%29.46 "Hg10 mi
Weather by CustomWeather, © 2015

See weather overviewHow to use our weather pages